Flag for Germany Weather past 2 weeks in Rheinberg, North Rhine-Westphalia, Germany

Now
34 °F

Low clouds.


Feels Like: 31 °F
Forecast: 32 / 39 °F
Wind: 3 mph from South

Location: Duesseldorf

Current Time: Feb 1, 2015 at 6:07:58 AM

Latest Report: Feb 1, 2015 at 5:00 AM


Visibility: 6 mi

Pressure: 29.15 "Hg

Humidity: 92%

Dew point: 31 °F

Location of RheinbergLocation

Historic Weather in Rheinberg — Graph

°F

Rheinberg temperature yesterday

Maximum temperature yesterday: 40 °F (at 2:00 PM)
Minimum temperature yesterday: 30 °F (at 9:00 PM)
Average temperature yesterday: 35 °F

Past Weeks' High & Low Weather Summary

 TemperatureHumidityPressure
High44 °F (Jan 28, 1:00 PM)100% (Jan 17, 8:00 AM)30.44 "Hg (Jan 17, 8:00 AM)
Low25 °F (Jan 25, 2:00 AM)58% (Jan 21, 1:00 PM)28.70 "Hg (Jan 30, 12:00 AM)
Average35 °F85%29.83 "Hg
* Reported Jan 17 5:00 AM — Feb 1 5:00 AM, Rheinberg, Weather by CustomWeather, © 2014

Note: Actual official high and low records may vary slightly from our data, if they occured in-between our weather recording intervals... More about our weather records

Advertising

Rheinberg weather history for previous 24 hours

 ConditionsComfort  
Time TempWeatherWind HumidityBarometerVisibility
5:00 AM
Feb 1
34 °FLow clouds.3 mph92%29.15 "Hg6 mi
3:00 AM32 °FLow clouds.3 mph91%29.15 "Hg11 mi
2:00 AM33 °FOvercast.2 mph93%29.15 "Hg12 mi
1:00 AM30 °FOvercast.2 mph93%29.15 "Hg14 mi
12:00 AM32 °FPassing clouds.3 mph90%29.12 "Hg14 mi
11:00 PM
Jan 31
31 °FPassing clouds.2 mph91%29.12 "Hg15 mi
9:00 PM30 °FPassing clouds.3 mph89%29.12 "Hg16 mi
8:00 PM31 °FPassing clouds.3 mph89%29.09 "Hg16 mi
7:00 PM30 °FPassing clouds.2 mph91%29.09 "Hg16 mi
6:00 PM33 °FPassing clouds.3 mph85%29.06 "Hg14 mi
5:00 PM38 °FPassing clouds.6 mph77%29.03 "Hg16 mi
4:00 PM40 °FScattered clouds.3 mph69%29.03 "Hg19 mi
3:00 PM40 °FPartly sunny.5 mph69%29.00 "Hg16 mi
2:00 PM40 °FSleet. Scattered clouds.6 mph68%29.00 "Hg16 mi
1:00 PM39 °FPartly sunny.5 mph76%29.00 "Hg14 mi
12:00 PM38 °FScattered clouds.6 mph81%29.00 "Hg9 mi
11:00 AM36 °FPartly sunny.3 mph89%29.00 "Hg9 mi
9:00 AM33 °FScattered clouds.6 mph94%28.97 "Hg6 mi
8:00 AM34 °FPassing clouds.5 mph93%28.94 "Hg7 mi
7:00 AM35 °FLow clouds.3 mph91%28.91 "Hg9 mi
6:00 AM35 °FLow clouds.5 mph93%28.91 "Hg7 mi
Weather by CustomWeather, © 2014

See weather overviewHow to use our weather pages